CW0238 Weather Reports


Display with metric or nautical units.
time (UTC)temp
F
wind
direction
speed
MPH
gust
MPH
rain 1hr
in
rain 24hr
in
rain mn
in
humidity
%
barometer
mb
20260831142237 83 302 1.0 7.0 0.00 0.00 0.00 70 1019.9
20260831141732 83 327 1.0 4.0 0.00 0.00 0.00 72 1019.8
20260831141231 83 287 0.0 4.0 0.00 0.00 0.00 72 1019.8
20260831140949 82 21 0.0 2.0 0.00 0.00 0.00 73 1019.9
20260831140231 81 8 0.0 3.0 0.00 0.00 0.00 74 1019.8
20260831135734 81 24 0.0 3.0 0.00 0.00 0.00 75 1019.8
20260831135227 80 258 0.0 2.0 0.00 0.00 0.00 77 1019.8
20260831134727 80 245 0.0 1.0 0.00 0.00 0.00 78 1019.8
20260831134228 80 245 0.0 1.0 0.00 0.00 0.00 79 1019.8
20260831133726 79 245 0.0 1.0 0.00 0.00 0.00 80 1019.8
20260831133225 78 245 0.0 1.0 0.00 0.00 0.00 82 1019.8
20260831132726 78 245 0.0 1.0 0.00 0.00 0.00 82 1019.8
20260831132443 77 245 0.0 0.0 0.00 0.00 0.00 83 1019.8
20260831131719 77 245 0.0 0.0 0.00 0.00 0.00 85 1019.7
20260831131220 76 245 0.0 0.0 0.00 0.00 0.00 85 1019.7
20260831130936 76 245 0.0 0.0 0.00 0.00 0.00 86 1019.7
20260831130212 76 245 0.0 0.0 0.00 0.00 0.00 86 1019.6
20260831125940 75 245 0.0 0.0 0.00 0.00 0.00 86 1019.6
20260831125433 75 245 0.0 0.0 0.00 0.00 0.00 87 1019.6
20260831124709 75 245 0.0 0.0 0.00 0.00 0.00 87 1019.5
20260831124209 74 245 0.0 0.0 0.00 0.00 0.00 88 1019.4
20260831123706 74 245 0.0 0.0 0.00 0.00 0.00 88 1019.5
20260831123205 74 245 0.0 0.0 0.00 0.00 0.00 88 1019.5
20260831122709 74 245 0.0 0.0 0.00 0.00 0.00 89 1019.4
20260831122200 73 245 0.0 0.0 0.00 0.00 0.00 89 1019.4
20260831121659 73 245 0.0 0.0 0.00 0.00 0.00 89 1019.3
20260831121426 73 245 0.0 0.0 0.00 0.00 0.00 89 1019.2
20260831120701 72 245 0.0 0.0 0.00 0.00 0.00 89 1019.2
20260831120159 72 245 0.0 0.0 0.00 0.00 0.00 89 1019.1
20260831115658 72 245 0.0 0.0 0.00 0.00 0.00 89 1019.1
20260831115157 72 245 0.0 0.0 0.00 0.00 0.00 89 1019.1
20260831114658 71 245 0.0 0.0 0.00 0.00 0.00 89 1019.1
20260831114158 71 245 0.0 0.0 0.00 0.00 0.00 89 1019.0
20260831113658 71 245 0.0 0.0 0.00 0.00 0.00 89 1019.0
20260831113155 71 245 0.0 0.0 0.00 0.00 0.00 89 1018.9
20260831112932 71 245 0.0 0.0 0.00 0.00 0.00 89 1018.9
20260831112153 71 245 0.0 0.0 0.00 0.00 0.00 89 1018.8
20260831111652 71 245 0.0 0.0 0.00 0.00 0.00 89 1018.7
20260831111153 71 245 0.0 0.0 0.00 0.00 0.00 89 1018.7
20260831110913 71 245 0.0 0.0 0.00 0.00 0.00 89 1018.7
20260831110147 71 245 0.0 0.0 0.00 0.00 0.00 89 1018.6
20260831105645 71 245 0.0 0.0 0.00 0.00 0.00 90 1018.6
20260831105155 71 245 0.0 0.0 0.00 0.00 0.00 90 1018.5
20260831104638 71 245 0.0 0.0 0.00 0.00 0.00 89 1018.5
20260831104139 71 245 0.0 0.0 0.00 0.00 0.00 90 1018.4
20260831103638 71 245 0.0 0.0 0.00 0.00 0.00 90 1018.5
20260831103137 71 245 0.0 0.0 0.00 0.00 0.00 90 1018.4
20260831102904 71 245 0.0 0.0 0.00 0.00 0.00 89 1018.3
20260831102134 71 245 0.0 0.0 0.00 0.00 0.00 89 1018.1
20260831101633 71 245 0.0 0.0 0.00 0.00 0.00 90 1018.1
20260831101136 71 245 0.0 0.0 0.00 0.00 0.00 89 1018.2
20260831100858 71 245 0.0 0.0 0.00 0.00 0.00 89 1018.2
20260831095631 71 245 0.0 0.0 0.00 0.00 0.00 89 1018.0
20260831095128 71 245 0.0 0.0 0.00 0.00 0.00 89 1017.9
20260831094627 71 245 0.0 0.0 0.00 0.00 0.00 89 1017.9
20260831094125 71 245 0.0 0.0 0.00 0.00 0.00 89 1017.9
20260831093119 71 245 0.0 0.0 0.00 0.00 0.00 89 1017.8
20260831092840 71 245 0.0 0.0 0.00 0.00 0.00 89 1017.8
20260831092351 71 245 0.0 0.0 0.00 0.00 0.00 89 1017.8
20260831091618 71 245 0.0 0.0 0.00 0.00 0.00 89 1017.7
20260831091333 71 245 0.0 0.0 0.00 0.00 0.00 89 1017.7
20260831090613 71 245 0.0 0.0 0.00 0.00 0.00 89 1017.7
20260831090114 71 245 0.0 0.0 0.00 0.00 0.00 89 1017.7
20260831085612 71 245 0.0 0.0 0.00 0.00 0.00 89 1017.8
20260831085334 71 245 0.0 0.0 0.00 0.00 0.00 89 1017.9
20260831084611 71 245 0.0 0.0 0.00 0.00 0.00 89 1017.8
20260831084108 71 245 0.0 0.0 0.00 0.00 0.00 89 1017.8
20260831083608 71 245 0.0 0.0 0.00 0.00 0.00 89 1017.7
20260831083108 71 245 0.0 0.0 0.00 0.00 0.00 89 1017.8
20260831082607 71 245 0.0 0.0 0.00 0.00 0.00 89 1017.8
20260831082104 71 245 0.0 0.0 0.00 0.00 0.00 88 1017.7
20260831081606 71 245 0.0 0.0 0.00 0.00 0.00 89 1017.7
20260831081058 71 245 0.0 0.0 0.00 0.00 0.00 88 1017.7
20260831080609 71 245 0.0 0.0 0.00 0.00 0.00 88 1017.6
20260831080107 71 245 0.0 0.0 0.00 0.00 0.00 88 1017.4
20260831075552 71 245 0.0 0.0 0.00 0.00 0.00 88 1017.4
20260831075052 72 245 0.0 0.0 0.00 0.00 0.00 88 1017.4
20260831074555 72 245 0.0 0.0 0.00 0.00 0.00 88 1017.4
20260831074050 72 245 0.0 0.0 0.00 0.00 0.00 88 1017.6
20260831073549 72 245 0.0 0.0 0.00 0.00 0.00 88 1017.6
20260831073048 72 245 0.0 0.0 0.00 0.00 0.00 88 1017.6
20260831072544 72 245 0.0 0.0 0.00 0.00 0.00 88 1017.7
20260831072044 72 245 0.0 0.0 0.00 0.00 0.00 88 1017.7
20260831071544 72 245 0.0 0.0 0.00 0.00 0.00 88 1017.7
20260831071036 72 245 0.0 0.0 0.00 0.00 0.00 88 1017.7
20260831070755 72 245 0.0 0.0 0.00 0.00 0.00 88 1017.7
20260831070037 72 245 0.0 0.0 0.00 0.00 0.00 88 1017.8
20260831065532 72 245 0.0 0.0 0.00 0.00 0.00 88 1017.8
20260831064531 72 245 0.0 0.0 0.00 0.00 0.00 87 1017.9
20260831064025 72 245 0.0 0.0 0.00 0.00 0.00 87 1018.0
20260831063524 73 245 0.0 0.0 0.00 0.00 0.00 87 1017.9
20260831063026 73 245 0.0 0.0 0.00 0.00 0.00 87 1017.9
20260831062526 73 245 0.0 0.0 0.00 0.00 0.00 87 1018.0
20260831062250 73 245 0.0 0.0 0.00 0.00 0.00 87 1018.0
20260831061521 73 245 0.0 0.0 0.00 0.00 0.00 87 1018.0
20260831061245 73 245 0.0 0.0 0.00 0.00 0.00 86 1018.0
20260831060746 73 245 0.0 0.0 0.00 0.00 0.00 86 1017.9
20260831060242 73 245 0.0 0.0 0.00 0.00 0.00 86 1018.0
20260831055514 73 245 0.0 0.0 0.00 0.00 0.00 86 1018.0
20260831055019 73 245 0.0 0.0 0.00 0.00 0.00 86 1018.0
20260831054514 73 245 0.0 0.0 0.00 0.00 0.00 85 1017.9
20260831054014 73 245 0.0 0.0 0.00 0.00 0.00 85 1017.9
20260831053514 73 245 0.0 0.0 0.00 0.00 0.00 85 1017.9
20260831053014 73 245 0.0 0.0 0.00 0.00 0.00 85 1018.0
20260831052522 74 245 0.0 0.0 0.00 0.00 0.00 85 1018.0
20260831052008 74 245 0.0 0.0 0.00 0.00 0.00 85 1018.0
20260831051728 74 245 0.0 0.0 0.00 0.00 0.00 85 1018.0
20260831051010 74 245 0.0 0.0 0.00 0.00 0.00 85 1018.1
20260831050503 74 245 0.0 0.0 0.00 0.00 0.00 85 1018.1
20260831050004 74 245 0.0 0.0 0.00 0.00 0.00 85 1018.0
20260831045502 74 245 0.0 0.0 0.00 0.00 0.00 85 1018.1
20260831045001 74 245 0.0 0.0 0.00 0.00 0.00 85 1018.1
20260831044727 74 245 0.0 0.0 0.00 0.00 0.00 85 1018.1
20260831044001 74 245 0.0 0.0 0.00 0.00 0.00 85 1018.0
20260831043501 74 245 0.0 0.0 0.00 0.00 0.00 85 1018.1
20260831042959 74 245 0.0 0.0 0.00 0.00 0.00 84 1018.1
20260831042456 74 245 0.0 0.0 0.00 0.00 0.00 84 1018.0
20260831042223 74 245 0.0 0.0 0.00 0.00 0.00 84 1017.9
20260831042111 74 245 0.0 0.0 0.00 0.00 0.00 84 1017.9
20260831041846 74 245 0.0 0.0 0.00 0.00 0.00 84 1017.9
20260831040452 74 245 0.0 0.0 0.00 0.00 0.00 84 1017.8
20260831035954 74 245 0.0 0.0 0.00 0.00 0.00 83 1017.8
20260831035451 74 245 0.0 0.0 0.00 0.00 0.00 83 1017.8
20260831034951 75 245 0.0 0.0 0.00 0.00 0.00 83 1017.8
20260831034716 75 245 0.0 0.0 0.00 0.00 0.00 82 1017.9
20260831033943 75 245 0.0 0.0 0.00 0.00 0.00 82 1017.9
20260831033711 75 245 0.0 0.0 0.00 0.00 0.00 82 1017.9
20260831032946 75 245 0.0 0.0 0.00 0.00 0.00 82 1017.9
20260831032438 76 245 0.0 0.0 0.00 0.00 0.00 81 1017.9
20260831031935 76 245 0.0 0.0 0.00 0.00 0.00 81 1018.0
20260831031438 76 245 0.0 0.0 0.00 0.00 0.00 81 1018.0
20260831031154 76 245 0.0 0.0 0.00 0.00 0.00 81 1018.0
20260831030432 76 245 0.0 0.0 0.00 0.00 0.00 81 1018.0
20260831025934 76 245 0.0 0.0 0.00 0.00 0.00 80 1018.0
20260831025433 76 245 0.0 0.0 0.00 0.00 0.00 80 1018.0
20260831024936 76 245 0.0 0.0 0.00 0.00 0.00 79 1018.0
20260831024431 77 245 0.0 0.0 0.00 0.00 0.00 78 1017.9
20260831023932 77 245 0.0 0.0 0.00 0.00 0.00 78 1017.8
20260831023429 77 245 0.0 0.0 0.00 0.00 0.00 78 1017.8
20260831022927 77 245 0.0 0.0 0.00 0.00 0.00 77 1017.8
20260831022425 77 245 0.0 0.0 0.00 0.00 0.00 77 1017.8
20260831021923 78 245 0.0 0.0 0.00 0.00 0.00 77 1017.7
20260831021419 78 245 0.0 0.0 0.00 0.00 0.00 76 1017.7
20260831020919 78 245 0.0 0.0 0.00 0.00 0.00 75 1017.7
20260831020418 78 245 0.0 0.0 0.00 0.00 0.00 75 1017.6
20260831015918 78 245 0.0 0.0 0.00 0.00 0.00 75 1017.6
20260831015416 79 245 0.0 0.0 0.00 0.00 0.00 74 1017.7
20260831014915 79 245 0.0 0.0 0.00 0.00 0.00 74 1017.6
20260831014416 79 245 0.0 0.0 0.00 0.00 0.00 74 1017.6
20260831013910 80 245 0.0 1.0 0.00 0.00 0.00 74 1017.6
20260831013409 80 245 0.0 1.0 0.00 0.00 0.00 74 1017.4
20260831012908 80 245 0.0 1.0 0.00 0.00 0.00 74 1017.4
20260831012407 80 245 0.0 1.0 0.00 0.00 0.00 74 1017.3
20260831011908 79 245 0.0 0.0 0.00 0.00 0.00 75 1017.2
20260831011642 80 245 0.0 0.0 0.00 0.00 0.00 75 1017.1
20260831010907 80 245 0.0 0.0 0.00 0.00 0.00 74 1017.1
20260831010404 81 245 0.0 0.0 0.00 0.00 0.00 73 1017.0
20260831005903 81 245 0.0 0.0 0.00 0.00 0.00 72 1017.0
20260831005404 82 245 0.0 1.0 0.00 0.00 0.00 72 1017.0
20260831005132 82 245 0.0 1.0 0.00 0.00 0.00 72 1017.0
20260831004118 83 245 0.0 0.0 0.00 0.00 0.00 71 1017.0
20260831003355 83 245 0.0 0.0 0.00 0.00 0.00 71 1016.9
20260831002854 83 245 0.0 0.0 0.00 0.00 0.00 70 1016.8
20260831002621 84 245 0.0 0.0 0.00 0.00 0.00 70 1016.8
20260831001905 84 245 0.0 0.0 0.00 0.00 0.00 69 1016.8
20260831001350 85 245 0.0 0.0 0.00 0.00 0.00 68 1016.8
20260831000844 85 245 0.0 0.0 0.00 0.00 0.00 68 1016.8
20260831000344 86 245 0.0 1.0 0.00 0.00 0.00 67 1016.8
20260830235846 86 245 0.0 1.0 0.00 0.00 0.00 65 1016.8
20260830235341 86 245 0.0 0.0 0.00 0.00 0.00 64 1016.9
20260830234842 87 245 0.0 0.0 0.00 0.00 0.00 62 1016.8
20260830234339 87 245 0.0 0.0 0.00 0.00 0.00 61 1016.8
20260830233835 87 245 0.0 0.0 0.00 0.00 0.00 61 1016.8
20260830233335 87 245 0.0 0.0 0.00 0.00 0.00 59 1016.8
20260830232329 89 245 0.0 1.0 0.00 0.00 0.00 56 1016.7
20260830231829 89 245 0.0 1.0 0.00 0.00 0.00 54 1016.7
20260830231327 90 245 0.0 1.0 0.00 0.00 0.00 53 1016.7
20260830230822 90 245 0.0 1.0 0.00 0.00 0.00 51 1016.7
20260830230321 91 245 0.0 1.0 0.00 0.00 0.00 51 1016.7
20260830225820 91 245 0.0 1.0 0.00 0.00 0.00 50 1016.7
20260830225319 91 245 0.0 1.0 0.00 0.00 0.00 49 1016.6
20260830224816 91 245 0.0 1.0 0.00 0.00 0.00 47 1016.8
20260830224312 91 250 0.0 2.0 0.00 0.00 0.00 48 1016.8
20260830223811 92 250 0.0 2.0 0.00 0.00 0.00 47 1016.7
20260830223311 91 319 0.0 2.0 0.00 0.00 0.00 46 1016.7
20260830222810 92 312 0.0 3.0 0.00 0.00 0.00 46 1016.7
20260830222309 92 315 0.0 3.0 0.00 0.00 0.00 45 1016.7
20260830221813 92 320 0.0 2.0 0.00 0.00 0.00 44 1016.7
20260830221308 92 321 0.0 2.0 0.00 0.00 0.00 45 1016.8
20260830221033 92 321 0.0 2.0 0.00 0.00 0.00 43 1016.8
20260830220526 92 321 0.0 2.0 0.00 0.00 0.00 45 1016.9
20260830215808 92 321 0.0 2.0 0.00 0.00 0.00 45 1017.0
20260830215307 93 338 0.0 2.0 0.00 0.00 0.00 43 1016.9
20260830214808 93 313 1.0 2.0 0.00 0.00 0.00 44 1017.0
20260830214302 93 313 1.0 3.0 0.00 0.00 0.00 41 1017.0
20260830213800 93 312 0.0 3.0 0.00 0.00 0.00 43 1017.1
20260830213302 93 312 1.0 3.0 0.00 0.00 0.00 42 1017.2
20260830212756 94 310 1.0 4.0 0.00 0.00 0.00 40 1017.3
20260830212258 95 308 1.0 6.0 0.00 0.00 0.00 40 1017.3
20260830211510 94 257 1.0 4.0 0.00 0.00 0.00 41 1017.3
20260830210751 95 316 2.0 5.0 0.00 0.00 0.00 39 1017.3
20260830210252 95 310 1.0 5.0 0.00 0.00 0.00 40 1017.3
20260830205750 94 308 0.0 3.0 0.00 0.00 0.00 43 1017.3
20260830205251 95 300 1.0 5.0 0.00 0.00 0.00 43 1017.4
20260830204747 95 300 1.0 5.0 0.00 0.00 0.00 39 1017.6
20260830204251 95 315 1.0 4.0 0.00 0.00 0.00 40 1017.6
20260830203742 95 302 1.0 4.0 0.00 0.00 0.00 41 1017.7
20260830203243 95 327 1.0 3.0 0.00 0.00 0.00 42 1017.7
20260830202745 94 240 1.0 2.0 0.00 0.00 0.00 44 1017.6
20260830202236 93 258 1.0 6.0 0.00 0.00 0.00 42 1017.6
20260830201457 94 357 1.0 7.0 0.00 0.00 0.00 41 1017.9
20260830200954 94 305 1.0 6.0 0.00 0.00 0.00 42 1017.9
20260830200228 94 304 1.0 4.0 0.00 0.00 0.00 44 1017.9
20260830195730 93 335 1.0 3.0 0.00 0.00 0.00 42 1017.9
20260830195225 93 343 0.0 4.0 0.00 0.00 0.00 45 1017.9
20260830194728 93 351 1.0 4.0 0.00 0.00 0.00 46 1018.0
20260830194223 94 311 1.0 4.0 0.00 0.00 0.00 44 1018.0
20260830193722 94 304 1.0 6.0 0.00 0.00 0.00 45 1018.1
20260830193227 93 292 1.0 6.0 0.00 0.00 0.00 43 1018.1
20260830192216 94 297 2.0 5.0 0.00 0.00 0.00 46 1018.2
20260830191724 94 248 2.0 8.0 0.00 0.00 0.00 45 1018.3
20260830191216 94 312 2.0 8.0 0.00 0.00 0.00 44 1018.5
20260830190942 94 348 2.0 8.0 0.00 0.00 0.00 44 1018.6
20260830190216 94 281 2.0 8.0 0.00 0.00 0.00 41 1018.6
20260830185708 93 320 2.0 7.0 0.00 0.00 0.00 48 1018.6
20260830185207 92 263 2.0 7.0 0.00 0.00 0.00 46 1018.7
20260830184710 93 265 1.0 2.0 0.00 0.00 0.00 49 1018.8
20260830184201 92 277 1.0 2.0 0.00 0.00 0.00 49 1018.9
20260830183700 91 275 1.0 3.0 0.00 0.00 0.00 50 1019.0
20260830183203 91 288 1.0 6.0 0.00 0.00 0.00 48 1019.1
20260830182700 93 318 1.0 6.0 0.00 0.00 0.00 47 1019.1
20260830182415 92 206 1.0 6.0 0.00 0.00 0.00 50 1019.1
20260830181659 92 302 1.0 6.0 0.00 0.00 0.00 48 1019.2
20260830181152 91 342 1.0 3.0 0.00 0.00 0.00 49 1019.2
20260830180705 91 217 1.0 3.0 0.00 0.00 0.00 50 1019.3
20260830180151 91 283 1.0 3.0 0.00 0.00 0.00 51 1019.3
20260830175647 91 285 1.0 3.0 0.00 0.00 0.00 51 1019.3
20260830175146 91 211 1.0 3.0 0.00 0.00 0.00 50 1019.4
20260830174648 91 304 1.0 3.0 0.00 0.00 0.00 53 1019.5
20260830174141 91 318 1.0 7.0 0.00 0.00 0.00 51 1019.6
20260830173641 91 321 1.0 7.0 0.00 0.00 0.00 52 1019.5
20260830173141 90 282 0.0 3.0 0.00 0.00 0.00 52 1019.6
20260830172636 89 282 0.0 3.0 0.00 0.00 0.00 53 1019.6
20260830172150 89 328 0.0 3.0 0.00 0.00 0.00 54 1019.7
20260830171637 90 328 1.0 4.0 0.00 0.00 0.00 51 1019.7
20260830171355 91 22 1.0 4.0 0.00 0.00 0.00 53 1019.8
20260830170631 91 285 1.0 3.0 0.00 0.00 0.00 51 1019.8
20260830170131 90 271 0.0 2.0 0.00 0.00 0.00 53 1019.8
20260830165849 89 205 0.0 3.0 0.00 0.00 0.00 55 1019.9
20260830165126 89 279 1.0 3.0 0.00 0.00 0.00 54 1019.9
20260830164627 89 279 1.0 3.0 0.00 0.00 0.00 56 1020.0
20260830164126 89 285 1.0 6.0 0.00 0.00 0.00 55 1020.0
20260830163626 89 316 2.0 6.0 0.00 0.00 0.00 54 1020.1
20260830163126 89 302 2.0 6.0 0.00 0.00 0.00 54 1020.1
20260830162858 89 314 1.0 4.0 0.00 0.00 0.00 55 1020.1
20260830162126 88 306 1.0 4.0 0.00 0.00 0.00 55 1020.1
20260830161625 88 246 1.0 3.0 0.00 0.00 0.00 57 1020.2
20260830161128 88 301 1.0 3.0 0.00 0.00 0.00 57 1020.2
20260830160621 88 288 1.0 3.0 0.00 0.00 0.00 58 1020.2
20260830160122 88 294 1.0 6.0 0.00 0.00 0.00 57 1020.2
20260830155623 87 290 1.0 6.0 0.00 0.00 0.00 57 1020.2
20260830155118 87 308 1.0 3.0 0.00 0.00 0.00 59 1020.2
20260830154617 86 306 0.0 3.0 0.00 0.00 0.00 59 1020.2
20260830154116 86 344 0.0 3.0 0.00 0.00 0.00 60 1020.2
20260830153614 86 220 0.0 3.0 0.00 0.00 0.00 61 1020.2
20260830153118 85 217 0.0 3.0 0.00 0.00 0.00 63 1020.2
20260830152609 84 217 1.0 6.0 0.00 0.00 0.00 63 1020.2
20260830152340 83 217 2.0 6.0 0.00 0.00 0.00 66 1020.1
20260830151610 81 267 2.0 5.0 0.00 0.00 0.00 71 1020.2
20260830151114 78 296 1.0 4.0 0.00 0.00 0.00 78 1020.2
20260830150600 78 194 1.0 3.0 0.00 0.00 0.00 81 1020.2
20260830150108 77 268 1.0 3.0 0.00 0.00 0.00 83 1020.1
20260830145600 76 318 0.0 3.0 0.00 0.00 0.00 85 1020.1
20260830145059 76 338 0.0 1.0 0.00 0.00 0.00 87 1020.0
20260830144558 75 338 0.0 2.0 0.00 0.00 0.00 88 1020.0
20260830144324 74 338 1.0 3.0 0.00 0.00 0.00 89 1019.8
20260830143555 74 344 0.0 3.0 0.00 0.00 0.00 90 1019.8
20260830143052 73 211 0.0 1.0 0.00 0.00 0.00 90 1019.8
20260830142813 73 211 0.0 1.0 0.00 0.00 0.00 90 1019.8